Temperature
-0 1 1 1 1 1 1 2 2 2 3 4 3 3 3 3 3 3 4 4 4 4 5 5 5 5 5 5 5 6 6 6 6 6 6 6 6 6 6 6 6 5 5 5
-1 0 0 1 1 1 2 2 2 2 3 3 2 2 2 2 2 2 3 3 3 4 4 4 4 4 4 5 5 5 5 5 5 5 5 5 5 5 5 5 5 5 5 5
-1 -0 0 -0 0 1 1 1 1 2 2 2 2 2 2 2 2 2 2 2 3 3 3 4 4 4 4 4 4 4 5 5 5 5 5 5 5 5 5 5 4 4 4 4
-2 -1 -1 0 0 0 1 1 1 1 1 1 1 1 1 2 2 1 2 2 2 3 3 3 3 3 4 4 4 4 4 4 4 4 4 4 4 4 4 4 4 4 4 4
-2 -2 -1 -0 -0 -1 -1 -0 -0 0 0 0 0 0 0 1 1 1 1 2 2 2 2 2 3 3 3 3 3 3 3 4 4 4 4 4 4 4 4 4 4 3 3 3
-3 -2 -1 -1 -1 -1 -0 -0 -1 -1 -1 -1 -0 0 -0 -0 0 0 1 1 1 1 2 2 2 2 2 3 3 3 3 3 3 3 3 3 3 3 3 3 3 3 3 3
-3 -3 -2 -2 -2 -1 -0 -1 -1 -1 -1 -1 -1 -1 -1 -1 -1 -0 -0 0 0 1 1 1 1 2 2 2 2 2 2 3 3 3 3 3 3 3 3 2 2 2 2 2
-3 -3 -2 -2 -2 -2 -2 -2 -2 -2 -2 -2 -2 -2 -2 -1 -1 -1 -1 -1 -0 -0 0 0 1 1 1 1 1 1 2 2 2 2 2 2 2 2 2 2 2 2 2 1
-3 -3 -3 -3 -3 -2 -2 -2 -2 -2 -2 -2 -2 -3 -2 -2 -2 -2 -2 -2 -1 -1 -1 -1 -1 0 0 0 0 1 1 1 1 1 1 1 1 1 1 1 1 1 1 1
-4 -4 -3 -3 -3 -3 -3 -3 -3 -3 -3 -3 -3 -3 -3 -3 -3 -3 -3 -2 -2 -2 -2 -2 -1 -1 -1 -0 -0 0 0 0 0 0 1 1 1 1 1 0 0 0 0 0
-5 -4 -4 -4 -4 -4 -3 -3 -3 -3 -3 -3 -3 -3 -4 -4 -4 -3 -3 -3 -3 -3 -2 -2 -2 -2 -2 -1 -1 -1 -1 -1 -0 -0 -0 -0 -0 -0 -0 -0 -0 -0 -0 -0
-5 -5 -5 -5 -4 -4 -4 -4 -4 -4 -4 -3 -3 -4 -4 -4 -4 -4 -4 -4 -3 -3 -3 -3 -3 -3 -2 -2 -2 -1 -1 -1 -1 -1 -1 -1 -1 -1 -1 -1 -1 -1 -1 -1
-5 -5 -5 -5 -5 -4 -4 -4 -4 -4 -4 -4 -4 -4 -4 -4 -4 -4 -4 -4 -4 -4 -4 -3 -3 -3 -3 -3 -2 -2 -2 -2 -2 -2 -2 -2 -2 -2 -2 -2 -2 -2 -2 -2
-5 -5 -5 -5 -5 -5 -5 -5 -5 -5 -4 -4 -4 -4 -4 -5 -5 -5 -5 -5 -4 -4 -4 -4 -4 -4 -3 -3 -3 -3 -3 -3 -3 -3 -3 -3 -3 -3 -3 -3 -3 -3 -3 -3
-5 -5 -5 -6 -5 -5 -5 -5 -5 -5 -5 -5 -5 -5 -5 -5 -5 -5 -5 -5 -4 -4 -4 -4 -4 -4 -4 -4 -4 -3 -3 -3 -3 -3 -3 -3 -3 -3 -3 -4 -4 -3 -3 -3
-6 -6 -6 -6 -6 -6 -6 -6 -6 -6 -5 -5 -5 -5 -5 -5 -5 -5 -5 -5 -5 -5 -5 -5 -5 -4 -4 -4 -4 -4 -4 -4 -4 -4 -4 -4 -4 -4 -4 -4 -4 -4 -4 -4
-7 -7 -7 -7 -7 -6 -6 -6 -6 -6 -6 -6 -6 -6 -6 -6 -5 -5 -5 -5 -5 -5 -5 -5 -5 -5 -5 -5 -5 -4 -4 -4 -4 -4 -4 -4 -4 -4 -5 -5 -5 -5 -5 -5
-7 -7 -7 -7 -7 -7 -7 -7 -7 -7 -6 -6 -6 -6 -6 -6 -6 -6 -6 -6 -5 -5 -5 -5 -5 -5 -5 -5 -5 -5 -5 -5 -5 -5 -5 -5 -5 -5 -5 -5 -5 -5 -5 -5
-7 -7 -7 -7 -7 -7 -7 -7 -7 -7 -7 -7 -7 -7 -6 -6 -6 -6 -6 -6 -6 -6 -6 -6 -6 -6 -6 -6 -6 -6 -5 -5 -5 -6 -6 -5 -5 -5 -6 -6 -6 -6 -6 -6
-8 -8 -8 -8 -8 -8 -8 -7 -7 -7 -7 -7 -7 -7 -7 -7 -7 -7 -7 -6 -6 -6 -6 -6 -6 -6 -6 -6 -6 -6 -6 -6 -6 -6 -6 -6 -6 -6 -6 -6 -6 -6 -6 -6
-8 -8 -8 -8 -8 -8 -8 -8 -8 -8 -7 -7 -7 -7 -7 -7 -7 -7 -7 -7 -7 -7 -7 -7 -7 -7 -7 -7 -7 -7 -7 -7 -7 -7 -6 -6 -6 -6 -6 -7 -7 -7 -7 -7
-9 -9 -9 -9 -8 -8 -8 -8 -8 -8 -8 -8 -8 -8 -8 -8 -8 -8 -7 -8 -7 -7 -7 -7 -7 -7 -7 -7 -7 -7 -7 -7 -7 -7 -7 -7 -7 -7 -7 -7 -7 -7 -7 -7
-9 -9 -9 -9 -9 -9 -9 -9 -8 -8 -8 -8 -8 -8 -8 -8 -8 -8 -8 -8 -8 -8 -8 -8 -8 -8 -8 -8 -8 -8 -8 -8 -8 -8 -7 -7 -7 -7 -7 -7 -7 -7 -7 -7
-9 -9 -9 -9 -9 -9 -9 -9 -9 -9 -9 -9 -9 -9 -9 -9 -9 -9 -9 -9 -8 -8 -8 -8 -8 -8 -8 -8 -8 -8 -8 -8 -8 -8 -8 -8 -8 -8 -8 -8 -8 -8 -8 -8
-10 -10 -10 -10 -9 -9 -10 -10 -9 -9 -9 -9 -9 -9 -9 -9 -9 -9 -9 -9 -9 -9 -9 -9 -9 -9 -9 -9 -8 -8 -8 -8 -9 -9 -8 -8 -8 -8 -8 -8 -8 -8 -8 -8
-10 -10 -10 -10 -10 -10 -10 -10 -10 -10 -10 -10 -10 -10 -10 -10 -10 -10 -9 -9 -9 -9 -9 -9 -9 -9 -9 -9 -9 -9 -9 -9 -9 -9 -9 -9 -9 -9 -9 -8 -8 -8 -8 -8
-10 -10 -10 -10 -10 -11 -11 -11 -11 -11 -11 -11 -10 -10 -10 -10 -10 -10 -10 -10 -10 -10 -9 -9 -9 -9 -9 -9 -9 -9 -9 -9 -9 -9 -9 -9 -9 -9 -9 -9 -9 -9 -9 -9
Wind_Speed
7 7 4 6 7 6 8 9 7 7 8 8 6 4 2 2 2 2 1 1 1 0 0 1 1 1 2 3 3 4 5 6 6 5 5 5 6 6 6 6 6 6 6 5
5 5 4 6 7 7 8 7 8 8 9 5 3 1 1 1 1 1 2 2 1 0 0 1 1 2 2 2 3 4 5 5 5 5 5 5 5 6 6 6 5 6 6 5
3 4 3 4 5 4 4 4 4 8 8 3 3 2 2 2 2 2 2 2 1 1 0 1 1 2 2 2 2 4 4 4 4 5 5 5 6 6 6 6 5 5 5 5
2 2 3 4 2 2 3 3 1 4 4 2 2 2 2 1 1 0 1 1 1 1 2 2 2 2 2 3 3 3 4 4 4 4 4 4 5 6 5 5 5 5 4 4
1 2 3 4 4 4 2 3 4 5 6 4 2 2 3 4 3 1 1 1 1 1 1 2 2 2 3 3 3 3 3 3 3 4 4 4 4 4 4 5 4 4 4 4
1 1 2 4 7 7 1 3 6 6 5 4 3 1 3 4 4 4 4 3 3 3 3 3 2 2 4 3 3 2 2 2 3 3 4 4 4 4 3 4 4 3 2 3
2 2 3 5 9 4 1 4 7 6 4 3 1 2 2 3 4 4 4 4 5 5 4 3 2 3 4 4 3 1 2 2 3 3 3 4 4 3 4 4 3 3 2 1
1 1 3 7 5 3 3 5 5 5 4 4 4 4 4 5 5 6 5 5 5 6 6 5 4 4 5 4 3 3 4 4 3 3 2 3 4 3 4 4 4 3 2 1
1 1 3 4 3 5 4 4 5 5 5 4 4 4 5 6 6 6 6 5 5 6 6 6 6 5 6 3 3 4 5 4 4 4 3 3 4 4 3 3 3 2 2 1
1 3 5 6 7 8 7 6 6 5 5 4 5 5 5 5 6 6 6 5 5 7 7 6 6 6 5 4 4 5 5 4 4 4 4 4 3 2 3 2 2 2 2 1
2 4 5 7 8 8 8 7 7 7 6 6 6 5 5 5 6 6 6 6 6 6 6 6 6 6 6 5 5 5 5 4 4 3 4 3 3 2 2 1 2 2 2 2
2 4 3 5 7 7 7 7 7 7 7 7 6 6 5 5 5 6 6 6 6 7 7 6 6 6 6 5 5 5 4 4 3 3 3 3 3 4 5 3 3 2 1 0
2 3 3 4 5 6 5 6 6 6 5 5 6 5 5 5 6 6 7 7 7 6 6 6 6 6 6 5 5 5 4 3 3 3 3 3 2 2 2 4 4 4 3 2
4 3 3 4 4 6 5 5 5 6 6 5 5 5 5 5 6 6 6 6 6 6 6 6 6 6 5 5 5 5 4 4 3 2 2 2 2 1 1 1 2 2 3 3
6 4 2 3 4 5 5 5 6 6 6 6 5 5 5 5 5 5 5 5 6 6 6 6 6 6 5 5 5 4 3 2 2 2 2 1 1 1 1 1 1 2 2 3
6 5 5 5 6 6 6 6 5 5 5 5 5 5 4 4 4 5 5 5 5 5 5 5 5 5 5 4 4 4 3 4 3 2 2 1 1 1 0 0 1 1 2 2
4 5 5 5 5 5 5 4 3 3 3 4 3 3 4 4 5 5 5 5 4 4 4 4 4 4 4 4 3 3 2 3 3 2 1 1 1 1 1 1 1 2 2 3
3 2 2 2 3 3 4 4 4 3 3 3 3 4 4 4 3 3 4 4 5 5 5 4 4 4 4 4 3 2 2 1 1 1 1 1 1 1 1 1 2 2 3 3
4 4 4 4 3 2 3 3 4 3 3 3 3 3 2 2 2 3 3 4 4 5 5 5 6 5 4 4 4 2 2 2 2 2 1 2 2 2 2 2 2 2 3 3
5 5 5 5 4 3 3 3 3 3 3 2 2 2 3 3 2 3 3 3 2 2 3 4 4 4 4 4 4 2 2 2 2 2 2 2 2 2 2 2 3 3 3 3
5 5 5 5 5 4 4 3 3 3 3 3 2 2 2 3 3 2 2 3 3 3 4 5 4 3 3 3 4 2 2 2 2 2 2 2 2 2 3 3 3 3 3 3
4 4 5 4 4 4 4 4 3 3 3 3 3 2 2 3 3 3 2 2 3 5 4 3 3 4 5 4 2 2 2 2 2 2 2 2 2 3 3 3 3 3 3 3
4 4 4 4 4 4 4 4 3 3 3 3 3 3 3 3 3 2 3 3 3 5 4 3 5 7 6 3 2 2 2 2 2 2 2 2 3 3 3 3 3 4 4 4
4 4 4 4 3 3 4 4 4 3 3 3 3 3 3 3 3 2 2 5 6 7 4 6 8 7 6 2 2 2 2 3 3 3 3 3 3 3 3 3 4 4 4 5
4 4 4 4 4 3 4 4 4 4 3 3 3 4 3 2 3 4 3 4 6 6 4 6 8 7 4 2 2 2 3 3 3 3 3 3 3 3 3 3 4 4 4 4
4 4 4 3 3 4 4 3 3 3 4 4 4 3 3 3 3 3 3 4 5 6 4 3 4 5 3 3 3 3 3 4 4 3 3 3 4 4 4 4 5 4 4 5
4 4 3 4 4 3 3 3 4 4 4 4 5 4 4 4 3 3 4 4 4 4 4 3 3 3 3 3 3 3 3 3 3 4 3 3 3 4 4 5 5 5 5 5
Wind_Direction
265 275 274 276 273 246 227 223 221 240 250 264 279 281 295 325 336 336 352 56 77 102 102 126 117 124 147 150 151 152 151 156 165 165 154 150 156 159 158 158 159 159 159 161
277 272 269 286 286 261 247 241 237 254 265 276 292 307 338 323 298 297 306 309 322 346 209 155 148 146 134 138 144 146 152 159 155 145 147 154 158 158 156 158 159 154 160 165
281 295 299 287 283 258 249 241 225 243 259 305 311 297 262 240 229 261 288 303 308 318 7 133 141 141 144 143 134 136 141 147 147 145 151 161 155 152 158 163 160 160 165 166
285 357 238 253 303 313 269 252 259 286 301 292 283 303 332 333 183 290 331 354 350 19 42 44 60 85 102 115 122 127 134 140 140 141 148 147 149 156 160 162 164 168 172 175
220 256 284 317 343 341 291 293 347 313 319 334 349 26 9 13 23 17 20 30 32 41 59 64 65 76 95 98 104 116 129 140 143 148 151 145 149 157 160 157 162 171 173 175
190 215 265 308 324 319 248 301 351 344 331 340 19 357 309 357 27 38 49 57 57 60 69 66 50 76 99 100 102 113 139 148 147 150 153 154 158 156 150 151 162 161 162 178
225 243 287 321 324 345 95 309 336 344 341 352 346 295 330 23 43 54 57 58 62 66 62 51 49 82 91 89 88 89 100 104 108 121 142 147 142 141 143 144 140 137 138 163
188 235 294 334 3 21 317 330 348 354 1 24 30 34 40 50 55 57 56 56 63 66 54 43 53 80 81 70 69 81 89 91 89 89 108 120 119 120 129 136 132 131 126 112
192 220 317 344 359 351 355 353 356 3 4 34 52 48 48 50 53 51 55 56 62 73 63 49 47 68 76 59 70 81 81 81 85 83 84 103 117 121 117 122 131 137 134 140
331 322 344 359 8 7 7 10 9 14 19 37 60 64 61 58 55 51 49 53 59 68 65 52 44 51 61 54 64 81 80 75 79 84 79 77 87 110 124 137 139 140 148 174
314 323 344 0 3 1 9 20 28 32 36 46 64 65 64 59 53 53 52 50 56 63 63 51 46 45 45 49 62 72 73 72 73 77 83 75 68 67 91 109 157 168 189 189
296 317 318 322 340 358 14 17 25 37 40 43 59 65 62 57 52 55 55 54 55 55 56 49 47 44 38 45 61 68 65 61 66 72 74 75 73 54 47 56 55 46 27 273
304 324 327 323 348 6 18 18 24 37 48 49 49 57 59 56 53 55 55 52 54 53 51 47 44 39 32 39 53 62 66 61 62 68 73 73 70 67 37 30 41 39 25 1
338 350 2 359 356 2 13 22 35 42 44 49 51 53 57 56 54 51 47 43 47 50 47 43 41 32 22 35 51 56 58 55 58 66 69 73 77 74 66 35 3 357 354 343
359 5 358 354 11 15 21 35 43 40 38 37 42 49 51 53 50 41 37 37 42 44 37 34 33 19 13 32 46 47 45 47 54 60 61 63 67 72 68 47 355 330 336 337
345 11 27 27 20 18 25 32 38 33 34 37 39 39 41 49 46 37 32 35 42 33 21 21 18 3 9 31 41 39 35 33 33 38 40 43 45 58 32 334 307 310 314 321
7 9 8 6 5 8 14 17 24 27 33 37 37 39 44 47 43 34 25 23 30 24 13 13 4 358 10 24 33 30 25 22 23 25 20 11 353 318 292 285 287 293 296 300
360 346 341 335 345 355 0 7 13 21 26 28 33 43 44 40 29 15 12 18 23 18 9 4 4 6 12 14 17 14 16 13 12 6 353 349 338 317 306 297 294 297 305 313
9 12 7 3 0 360 357 356 1 10 15 30 38 31 24 18 10 3 9 20 18 4 350 353 1 7 4 1 4 12 11 4 356 349 342 337 340 334 322 310 304 300 302 311
7 8 9 6 8 8 360 358 4 8 9 25 31 26 17 5 2 3 10 6 344 319 322 342 352 353 352 353 2 4 358 348 336 330 328 322 312 308 307 304 305 306 306 306
355 359 0 359 357 356 355 354 0 354 351 4 11 354 341 339 345 353 1 345 335 339 343 346 350 339 341 350 359 0 357 351 336 319 313 308 305 303 301 301 303 304 302 302
344 348 347 346 349 348 349 348 348 344 345 351 351 345 342 339 342 341 323 297 311 331 340 332 326 329 338 347 351 351 347 344 334 324 314 307 302 299 297 298 298 299 299 297
333 335 335 336 334 331 337 341 342 340 336 332 329 321 313 308 311 313 315 317 318 327 332 321 323 328 337 346 341 337 333 327 321 315 309 303 298 294 294 296 296 298 298 297
333 334 332 329 336 342 338 333 333 331 322 315 314 308 303 310 314 306 291 310 323 324 322 319 324 327 336 340 327 319 314 311 306 300 297 296 294 292 294 295 295 296 295 296
326 328 331 335 336 326 319 322 328 328 324 319 315 314 310 301 293 302 307 308 314 320 319 320 323 326 333 321 312 304 300 294 291 293 292 295 294 294 294 293 292 294 295 294
320 319 315 312 307 307 311 315 314 313 315 314 315 314 311 306 297 298 303 304 306 313 317 312 312 315 313 306 302 298 295 299 303 302 295 292 291 291 291 292 293 292 291 289
320 319 320 321 320 315 309 305 303 305 307 305 305 308 309 309 307 305 305 306 308 307 305 303 301 301 301 298 297 295 294 292 289 288 287 285 284 284 286 287 288 289 291 291
Height
1444 1440 1440 1439 1437 1436 1437 1436 1438 1432 1428 1422 1423 1423 1423 1422 1422 1422 1422 1422 1423 1424 1425 1427 1428 1430 1432 1434 1436 1439 1441 1444 1447 1450 1452 1455 1458 1461 1464 1467 1470 1473 1476 1478
1444 1440 1439 1437 1435 1433 1432 1431 1430 1429 1426 1422 1423 1423 1422 1422 1422 1422 1422 1422 1422 1423 1424 1425 1427 1429 1431 1433 1435 1437 1439 1442 1445 1447 1450 1453 1456 1458 1461 1464 1467 1470 1472 1475
1445 1441 1436 1438 1434 1432 1431 1429 1428 1427 1423 1423 1422 1422 1422 1421 1421 1422 1422 1421 1422 1423 1423 1425 1426 1428 1429 1431 1433 1435 1437 1440 1442 1445 1447 1450 1452 1455 1458 1461 1464 1467 1469 1472
1447 1445 1445 1437 1431 1430 1429 1427 1427 1425 1423 1422 1421 1421 1420 1420 1420 1420 1420 1421 1421 1422 1423 1424 1426 1427 1429 1430 1432 1433 1435 1437 1440 1442 1445 1447 1450 1452 1455 1458 1461 1464 1466 1469
1448 1446 1439 1434 1432 1432 1431 1428 1427 1425 1422 1421 1420 1419 1419 1420 1420 1420 1420 1420 1421 1421 1422 1423 1425 1426 1427 1429 1430 1432 1434 1436 1438 1441 1443 1445 1447 1450 1452 1455 1458 1460 1463 1465
1450 1447 1443 1438 1433 1430 1431 1429 1427 1424 1423 1422 1420 1422 1421 1420 1419 1419 1420 1420 1420 1421 1422 1423 1424 1426 1427 1428 1429 1431 1433 1435 1437 1439 1442 1443 1446 1448 1450 1452 1455 1457 1459 1461
1451 1449 1443 1440 1434 1430 1434 1433 1429 1426 1424 1423 1422 1422 1422 1420 1420 1419 1420 1420 1420 1420 1421 1422 1423 1425 1425 1427 1428 1430 1432 1434 1436 1438 1440 1442 1444 1446 1448 1450 1452 1454 1456 1458
1450 1451 1448 1440 1436 1437 1436 1432 1429 1427 1425 1423 1422 1421 1421 1421 1420 1420 1420 1420 1420 1420 1421 1422 1423 1424 1425 1426 1428 1430 1431 1433 1435 1436 1438 1440 1442 1443 1445 1447 1449 1451 1453 1454
1450 1450 1446 1442 1440 1438 1436 1433 1430 1428 1426 1425 1423 1423 1422 1422 1422 1421 1421 1421 1421 1421 1422 1423 1423 1424 1424 1426 1428 1429 1430 1432 1434 1435 1437 1439 1440 1442 1443 1445 1447 1448 1450 1451
1450 1447 1446 1444 1441 1439 1436 1434 1431 1429 1428 1426 1425 1424 1424 1424 1424 1423 1423 1423 1423 1422 1423 1424 1424 1425 1426 1427 1428 1429 1430 1431 1433 1434 1436 1438 1439 1441 1442 1443 1445 1446 1447 1448
1451 1449 1446 1444 1443 1441 1438 1435 1433 1431 1430 1429 1428 1427 1427 1426 1426 1426 1425 1425 1425 1424 1424 1425 1426 1426 1427 1428 1429 1429 1430 1431 1433 1434 1435 1437 1438 1440 1441 1442 1443 1444 1445 1446
1454 1452 1450 1448 1445 1442 1439 1437 1435 1433 1432 1432 1431 1430 1430 1429 1429 1428 1428 1427 1427 1427 1427 1427 1428 1428 1429 1429 1430 1430 1430 1431 1432 1433 1434 1436 1437 1438 1439 1441 1442 1442 1443 1444
1454 1452 1450 1448 1446 1444 1441 1439 1437 1435 1434 1434 1433 1433 1432 1431 1431 1431 1430 1430 1429 1429 1429 1430 1430 1430 1430 1431 1431 1431 1431 1432 1433 1433 1434 1435 1436 1436 1437 1439 1440 1440 1441 1442
1453 1451 1450 1448 1447 1445 1443 1441 1439 1437 1436 1436 1435 1435 1435 1434 1433 1433 1432 1432 1432 1432 1432 1432 1432 1432 1432 1432 1432 1432 1432 1433 1433 1434 1434 1435 1435 1436 1437 1437 1438 1438 1439 1440
1453 1452 1451 1449 1447 1446 1444 1442 1440 1438 1438 1437 1437 1437 1436 1436 1435 1435 1435 1435 1435 1434 1434 1433 1433 1433 1433 1433 1433 1433 1433 1433 1433 1434 1434 1434 1435 1436 1436 1436 1436 1436 1437 1437
1454 1452 1450 1449 1447 1446 1445 1443 1441 1440 1440 1439 1439 1438 1438 1438 1437 1437 1437 1437 1436 1435 1435 1435 1434 1434 1434 1434 1433 1433 1433 1433 1433 1433 1433 1434 1434 1434 1435 1435 1434 1434 1434 1435
1454 1452 1451 1449 1448 1447 1446 1444 1443 1442 1441 1440 1440 1440 1439 1439 1438 1438 1438 1438 1437 1437 1436 1436 1435 1435 1434 1434 1433 1433 1432 1432 1432 1432 1432 1432 1432 1433 1433 1433 1433 1432 1432 1432
1455 1453 1452 1451 1449 1447 1446 1445 1444 1443 1442 1442 1441 1440 1440 1439 1439 1438 1438 1438 1438 1437 1437 1436 1435 1434 1434 1433 1433 1432 1432 1431 1431 1431 1431 1431 1431 1431 1431 1431 1431 1430 1430 1429
1455 1453 1452 1451 1449 1448 1447 1446 1445 1444 1443 1442 1441 1441 1440 1440 1440 1439 1439 1438 1437 1436 1436 1436 1435 1434 1433 1432 1432 1431 1430 1430 1429 1429 1429 1429 1429 1429 1429 1428 1428 1428 1427 1426
1455 1454 1452 1451 1450 1449 1447 1446 1445 1444 1443 1443 1442 1441 1440 1440 1440 1439 1438 1437 1437 1436 1435 1435 1434 1433 1432 1431 1431 1430 1429 1428 1428 1427 1427 1427 1426 1426 1426 1426 1425 1425 1424 1423
1455 1454 1452 1451 1450 1448 1447 1446 1445 1444 1443 1443 1442 1441 1440 1439 1439 1438 1437 1436 1436 1435 1435 1434 1433 1432 1431 1430 1429 1428 1428 1427 1426 1425 1425 1424 1424 1424 1424 1423 1422 1422 1421 1420
1455 1453 1452 1450 1449 1448 1447 1446 1445 1444 1443 1442 1441 1440 1439 1438 1438 1437 1436 1435 1434 1434 1433 1432 1431 1430 1429 1428 1427 1426 1425 1424 1424 1423 1423 1422 1422 1421 1421 1420 1419 1418 1418 1417
1455 1453 1451 1450 1448 1447 1446 1445 1444 1443 1442 1441 1440 1439 1438 1437 1436 1435 1434 1433 1432 1431 1430 1429 1429 1428 1427 1426 1425 1424 1423 1422 1421 1421 1420 1419 1419 1418 1417 1417 1416 1415 1414 1413
1454 1452 1451 1449 1448 1446 1445 1444 1443 1441 1440 1439 1438 1437 1436 1435 1434 1433 1432 1431 1430 1429 1428 1427 1426 1425 1424 1423 1422 1421 1420 1419 1419 1418 1417 1417 1416 1415 1414 1413 1413 1412 1411 1410
1452 1450 1449 1448 1446 1445 1443 1442 1441 1439 1438 1437 1436 1435 1434 1433 1432 1430 1429 1428 1427 1426 1425 1424 1423 1422 1421 1420 1419 1419 1418 1417 1416 1415 1414 1414 1413 1412 1411 1410 1409 1408 1407 1406
1451 1449 1448 1446 1445 1443 1442 1440 1439 1437 1436 1434 1433 1433 1431 1430 1429 1428 1427 1426 1424 1423 1422 1421 1420 1419 1418 1418 1417 1416 1415 1414 1413 1412 1412 1411 1410 1409 1408 1407 1406 1405 1404 1403
1449 1447 1445 1444 1443 1441 1440 1438 1436 1435 1434 1432 1430 1429 1428 1427 1426 1425 1424 1423 1422 1420 1419 1418 1417 1416 1415 1415 1414 1413 1412 1411 1410 1409 1408 1407 1407 1406 1405 1404 1403 1402 1400 1399